Whiteman AFB, MO

10:29 PM CST on January 23, 2018 (GMT -0600)
Whiteman Air Force Base

Weather History for KSZL - December, 2012

Change the Weather History Date:

Saturday, December 29, 2012

  Actual Average Record
Temperature  
Mean Temperature 27 °F -  
Max Temperature 33 °F 37 °F 64 °F (1999)
Min Temperature 21 °F 20 °F 8 °F (2000)
Degree Days  
Heating Degree Days 38    
Moisture  
Dew Point 18 °F    
Average Humidity 77    
Maximum Humidity 93    
Minimum Humidity 50    
Precipitation  
Precipitation 0.00 in - - ()
Sea Level Pressure  
Sea Level Pressure 30.20 in    
Wind  
Wind Speed 12 mph (WNW)    
Max Wind Speed 16 mph    
Max Gust Speed 24 mph    
Visibility 10 miles    
Events Snow    
Averages and records for this station are not official NWS values.
T = Trace of Precipitation, MM = Missing Value Source: NWS Daily Summary

Daily Weather History Graph

Daily Weather History Graph

Search for Another Location

Airport or City:

Trip Planner

Search our weather history database for the weather conditions in past years. The results will help you decide how hot, cold, wet, or windy it might be!

Date:

Astronomy

Dec. 29, 2012 Rise Set
Actual Time 7:31 AM CST 5:01 PM CST
Civil Twilight 7:02 AM CST 5:31 PM CST
Nautical Twilight 6:28 AM CST 6:04 PM CST
Astronomical Twilight 5:56 AM CST 6:36 PM CST
Moon 6:33 PM CST (12/29) 8:06 AM CST (12/29)
Length of Visible Light 10h 29m
Length of Day
9h 29m
Full, 98% of the Moon is Illuminated
Dec 29
Full
Jan 4
Last Quarter
Jan 11
New
Jan 18
First Quarter
Jan 26
Full

Hourly Weather History & Observations

Time (CST) Temp. Windchill Dew Point Humidity Pressure Visibility Wind Dir Wind Speed Gust Speed Precip Events Conditions
12:00 AM 23.0 °F 11.1 °F 17.6 °F 80% 30.07 in 10.0 mi WNW 12.7 mph - N/A   Overcast
12:14 AM 23.0 °F 11.7 °F 17.6 °F 80% 30.07 in 10.0 mi WNW 11.5 mph - N/A   Overcast
12:20 AM 23.0 °F 11.1 °F 17.6 °F 80% 30.07 in 10.0 mi WNW 12.7 mph - N/A   Overcast
12:32 AM 23.0 °F 10.6 °F 17.6 °F 80% 30.07 in 10.0 mi WNW 13.8 mph - N/A   Overcast
12:45 AM 23.0 °F 10.6 °F 17.6 °F 80% 30.07 in 10.0 mi WNW 13.8 mph 20.7 mph N/A   Overcast
12:55 AM 23.0 °F 11.1 °F 17.1 °F 78% 30.07 in 10.0 mi WNW 12.7 mph - 0.00 in   Overcast
1:33 AM 23.0 °F 12.4 °F 17.6 °F 80% 30.08 in 10.0 mi WNW 10.4 mph - N/A   Mostly Cloudy
1:34 AM 23.0 °F 12.4 °F 17.6 °F 80% 30.08 in 10.0 mi NW 10.4 mph - N/A   Mostly Cloudy
1:55 AM 22.6 °F 10.7 °F 18.5 °F 84% 30.08 in 9.0 mi NW 12.7 mph - 0.00 in Snow Light Snow
2:07 AM 23.0 °F 11.7 °F 19.4 °F 86% 30.10 in 9.0 mi WNW 11.5 mph - N/A   Mostly Cloudy
2:29 AM 23.0 °F 12.4 °F 19.4 °F 86% 30.11 in 7.0 mi WNW 10.4 mph - N/A Snow Light Snow
2:55 AM 23.0 °F 11.7 °F 20.3 °F 89% 30.12 in 7.0 mi WNW 11.5 mph - 0.00 in Snow Light Snow
3:17 AM 23.0 °F 11.1 °F 21.2 °F 93% 30.12 in 9.0 mi WNW 12.7 mph - N/A   Overcast
3:55 AM 23.5 °F 11.3 °F 20.7 °F 89% 30.12 in 9.0 mi WNW 13.8 mph 19.6 mph 0.00 in   Overcast
4:01 AM 23.0 °F 11.1 °F 21.2 °F 93% 30.13 in 10.0 mi WNW 12.7 mph - N/A   Overcast
4:20 AM 23.0 °F 11.1 °F 19.4 °F 86% 30.14 in 10.0 mi WNW 12.7 mph - N/A   Overcast
4:31 AM 23.0 °F 10.1 °F 21.2 °F 93% 30.14 in 9.0 mi NW 15.0 mph - N/A   Overcast
4:41 AM 23.0 °F 10.6 °F 19.4 °F 86% 30.14 in 9.0 mi NW 13.8 mph - N/A   Overcast
4:45 AM 23.0 °F 11.1 °F 21.2 °F 93% 30.14 in 9.0 mi NW 12.7 mph - N/A   Overcast
4:55 AM 23.4 °F 10.6 °F 20.1 °F 87% 30.14 in 9.0 mi NW 15.0 mph 24.2 mph 0.00 in   Overcast
5:02 AM 23.0 °F 9.6 °F 19.4 °F 86% 30.15 in 9.0 mi NW 16.1 mph - N/A   Overcast
5:55 AM 22.1 °F 8.9 °F 18.5 °F 86% 30.17 in 10.0 mi NW 15.0 mph - N/A   Overcast
6:55 AM 21.0 °F 9.3 °F 16.9 °F 84% 30.21 in 10.0 mi NNW 11.5 mph - N/A   Overcast
7:36 AM 21.2 °F 8.9 °F 15.8 °F 80% 30.23 in 10.0 mi WNW 12.7 mph - N/A   Overcast
7:55 AM 21.6 °F 11.3 °F 16.3 °F 80% 30.23 in 10.0 mi NW 9.2 mph - N/A   Overcast
8:55 AM 21.2 °F 8.3 °F 15.6 °F 79% 30.27 in 10.0 mi NW 13.8 mph - N/A   Overcast
9:55 AM 22.5 °F 12.4 °F 16.5 °F 78% 30.30 in 10.0 mi WNW 9.2 mph - N/A   Overcast
10:55 AM 24.1 °F 15.2 °F 16.3 °F 72% 30.31 in 10.0 mi West 8.1 mph - N/A   Overcast
11:22 AM 24.8 °F 15.3 °F 15.8 °F 69% 30.30 in 10.0 mi WSW 9.2 mph - N/A   Mostly Cloudy
11:55 AM 27.3 °F 17.7 °F 16.7 °F 64% 30.30 in 10.0 mi West 10.4 mph - N/A   Scattered Clouds
12:55 PM 29.5 °F 21.1 °F 16.5 °F 59% 30.28 in 10.0 mi West 9.2 mph - N/A   Clear
1:55 PM 31.3 °F 22.7 °F 15.8 °F 53% 30.27 in 10.0 mi WNW 10.4 mph - N/A   Clear
2:55 PM 32.7 °F 25.0 °F 16.3 °F 51% 30.28 in 10.0 mi WSW 9.2 mph - N/A   Clear
3:55 PM 33.1 °F 26.9 °F 16.3 °F 50% 30.28 in 10.0 mi West 6.9 mph - N/A   Clear
4:55 PM 30.7 °F 23.3 °F 16.3 °F 55% 30.30 in 10.0 mi West 8.1 mph - N/A   Clear
5:55 PM 27.0 °F 20.5 °F 16.5 °F 65% 30.32 in 10.0 mi WSW 5.8 mph - N/A   Clear
6:55 PM 27.7 °F 20.4 °F 16.7 °F 63% 30.33 in 10.0 mi SW 6.9 mph - N/A   Clear
7:55 PM 25.2 °F 16.5 °F 16.5 °F 70% 30.34 in 10.0 mi SW 8.1 mph - N/A   Clear
8:55 PM 25.2 °F 18.3 °F 16.3 °F 69% 30.34 in 10.0 mi SSW 5.8 mph - N/A   Clear
9:55 PM 23.4 °F 15.2 °F 16.2 °F 74% 30.33 in 10.0 mi SW 6.9 mph - N/A   Clear
10:55 PM 23.0 °F 14.7 °F 16.0 °F 74% 30.34 in 10.0 mi SW 6.9 mph - N/A   Clear
11:55 PM 21.4 °F 11.1 °F 16.2 °F 80% 30.35 in 10.0 mi SSW 9.2 mph - N/A   Clear